Time,TemperatureF,DewpointF,PressureIn,WindDirection,WindDirectionDegrees,WindSpeedMPH,WindSpeedGustMPH,Humidity,HourlyPrecipIn,Conditions,Clouds,dailyrainin,SoftwareType,DateUTC
2013-04-01 00:00:00,39.5,39.0,29.70,North,349,13.2,26.7,98,0.00,,,0.20,VWS V14.01,2013-04-01 04:00:00,
2013-04-01 00:01:00,39.3,38.8,29.70,NNW,338,13.0,28.9,98,0.00,,,0.20,VWS V14.01,2013-04-01 04:01:00,
2013-04-01 00:02:00,39.2,38.7,29.70,NNW,329,16.0,23.5,98,0.00,,,0.00,VWS V14.01,2013-04-01 04:02:00,
2013-04-01 00:03:00,39.3,38.8,29.70,North,359,17.0,28.9,98,0.00,,,0.00,VWS V14.01,2013-04-01 04:03:00,
2013-04-01 00:04:00,39.2,38.7,29.70,SE,135,10.1,30.2,98,0.00,,,0.00,VWS V14.01,2013-04-01 04:04:00,
2013-04-01 00:05:00,39.2,38.7,29.70,North,356,19.2,30.2,98,0.00,,,0.00,VWS V14.01,2013-04-01 04:05:00,
2013-04-01 00:06:00,39.3,38.8,29.70,NNW,340,15.8,30.2,98,0.00,,,0.00,VWS V14.01,2013-04-01 04:06:00,
2013-04-01 00:07:00,39.4,38.9,29.70,NNE,32,7.1,33.0,98,0.00,,,0.20,VWS V14.01,2013-04-01 04:07:00,
2013-04-01 00:08:00,39.3,38.8,29.70,North,359,17.5,30.2,98,0.00,,,0.00,VWS V14.01,2013-04-01 04:08:00,
2013-04-01 00:09:00,39.3,38.8,29.70,NNE,27,10.8,30.2,98,0.00,,,0.00,VWS V14.01,2013-04-01 04:09:00,
2013-04-01 00:10:00,39.3,38.8,29.70,NNW,340,13.0,30.2,98,0.00,,,0.00,VWS V14.01,2013-04-01 04:10:00,
2013-04-01 00:11:00,39.2,38.7,29.70,NW,326,21.1,30.2,98,0.00,,,0.00,VWS V14.01,2013-04-01 04:11:00,
2013-04-01 00:12:00,39.5,39.0,29.70,SSE,150,7.3,33.0,98,0.00,,,0.20,VWS V14.01,2013-04-01 04:12:00,
2013-04-01 00:13:00,39.2,38.7,29.70,NNW,339,12.1,44.4,98,0.00,,,0.00,VWS V14.01,2013-04-01 04:13:00,
2013-04-01 00:14:00,39.3,38.8,29.70,East,89,2.1,44.4,98,0.00,,,0.00,VWS V14.01,2013-04-01 04:14:00,
2013-04-01 00:15:00,39.3,38.8,29.70,North,3,8.9,44.4,98,0.00,,,0.00,VWS V14.01,2013-04-01 04:15:00,
2013-04-01 00:16:00,39.3,38.8,29.70,NNE,18,8.0,44.4,98,0.00,,,0.00,VWS V14.01,2013-04-01 04:16:00,
2013-04-01 00:17:00,39.3,38.8,29.70,NNW,335,32.8,40.8,98,0.00,,,0.20,VWS V14.01,2013-04-01 04:17:00,
2013-04-01 00:18:00,39.2,38.7,29.70,NW,314,5.2,44.4,98,0.00,,,0.00,VWS V14.01,2013-04-01 04:18:00,
2013-04-01 00:19:00,39.3,38.8,29.70,NNW,340,23.3,44.4,98,0.00,,,0.00,VWS V14.01,2013-04-01 04:19:00,
2013-04-01 00:20:00,39.3,38.8,29.70,NNW,336,21.4,44.4,98,0.00,,,0.00,VWS V14.01,2013-04-01 04:20:00,
2013-04-01 00:21:00,39.3,38.8,29.70,ENE,75,0.0,44.4,98,0.00,,,0.00,VWS V14.01,2013-04-01 04:21:00,
2013-04-01 00:22:00,39.3,38.8,29.70,NNW,338,7.3,44.4,98,0.00,,,0.00,VWS V14.01,2013-04-01 04:22:00,
2013-04-01 00:23:00,39.4,38.9,29.70,ESE,112,0.6,40.8,98,0.00,,,0.20,VWS V14.01,2013-04-01 04:23:00,
2013-04-01 00:24:00,39.2,38.7,29.70,NE,55,8.4,44.4,98,0.00,,,0.00,VWS V14.01,2013-04-01 04:24:00,
2013-04-01 00:25:00,39.1,38.6,29.70,NNW,333,14.0,44.4,98,0.00,,,0.00,VWS V14.01,2013-04-01 04:25:00,
2013-04-01 00:26:00,39.3,38.8,29.70,WNW,300,4.3,44.4,98,0.00,,,0.00,VWS V14.01,2013-04-01 04:26:00,
2013-04-01 00:27:00,39.2,38.7,29.70,ENE,63,16.4,44.4,98,0.00,,,0.00,VWS V14.01,2013-04-01 04:27:00,
2013-04-01 00:28:00,39.4,38.9,29.69,NNE,18,8.8,40.8,98,0.00,,,0.20,VWS V14.01,2013-04-01 04:28:00,
2013-04-01 00:29:00,39.3,38.8,29.70,NNW,336,0.0,44.4,98,0.00,,,0.00,VWS V14.01,2013-04-01 04:29:00,
2013-04-01 00:30:00,39.2,38.7,29.70,North,0,8.4,44.4,98,0.00,,,0.00,VWS V14.01,2013-04-01 04:30:00,
2013-04-01 00:31:00,39.2,38.7,29.70,NNE,24,5.0,44.4,98,0.00,,,0.00,VWS V14.01,2013-04-01 04:31:00,
2013-04-01 00:32:00,39.3,38.8,29.70,East,84,17.0,44.4,98,0.00,,,0.00,VWS V14.01,2013-04-01 04:32:00,
2013-04-01 00:33:00,39.4,38.9,29.70,NE,37,10.1,40.8,98,0.00,,,0.20,VWS V14.01,2013-04-01 04:33:00,
2013-04-01 00:34:00,39.2,38.7,29.70,NNW,330,16.6,44.4,98,0.00,,,0.00,VWS V14.01,2013-04-01 04:34:00,
2013-04-01 00:35:00,39.3,38.8,29.71,NE,51,5.4,44.4,98,0.00,,,0.00,VWS V14.01,2013-04-01 04:35:00,
2013-04-01 00:36:00,39.3,38.8,29.70,ENE,62,17.7,44.4,98,0.00,,,0.00,VWS V14.01,2013-04-01 04:36:00,
2013-04-01 00:37:00,39.3,38.8,29.70,NW,308,12.3,44.4,98,0.00,,,0.00,VWS V14.01,2013-04-01 04:37:00,
2013-04-01 00:38:00,39.3,38.8,29.70,NNW,335,5.4,40.8,98,0.00,,,0.20,VWS V14.01,2013-04-01 04:38:00,
2013-04-01 00:40:00,39.4,38.9,29.70,North,8,12.1,44.4,98,0.00,,,0.00,VWS V14.01,2013-04-01 04:40:00,
2013-04-01 00:41:00,39.3,38.8,29.70,North,1,9.3,44.4,98,0.00,,,0.00,VWS V14.01,2013-04-01 04:41:00,
2013-04-01 00:42:00,39.3,38.8,29.70,NNW,338,16.6,44.4,98,0.00,,,0.00,VWS V14.01,2013-04-01 04:42:00,
2013-04-01 00:43:00,39.3,38.8,29.70,NNE,15,7.1,40.8,98,0.00,,,0.20,VWS V14.01,2013-04-01 04:43:00,
2013-04-01 00:44:00,39.4,38.9,29.70,NNW,333,13.0,44.4,98,0.00,,,0.00,VWS V14.01,2013-04-01 04:44:00,
2013-04-01 00:48:00,39.3,38.8,29.70,ESE,107,18.8,40.8,98,0.00,,,0.20,VWS V14.01,2013-04-01 04:48:00,
2013-04-01 00:50:00,39.4,38.9,29.70,NW,305,7.8,44.4,98,0.00,,,0.00,VWS V14.01,2013-04-01 04:50:00,
2013-04-01 00:52:00,39.4,38.8,29.70,North,349,13.6,44.4,98,0.00,,,0.00,VWS V14.01,2013-04-01 04:52:00,
2013-04-01 00:54:00,39.3,38.8,29.70,NNW,329,22.4,40.8,98,0.00,,,0.20,VWS V14.01,2013-04-01 04:54:00,
2013-04-01 00:55:00,39.5,38.9,29.70,NE,55,6.7,44.4,98,0.00,,,0.00,VWS V14.01,2013-04-01 04:55:00,
2013-04-01 00:57:00,39.4,38.8,29.70,ESE,105,0.0,44.4,98,0.00,,,0.00,VWS V14.01,2013-04-01 04:57:00,
2013-04-01 00:58:00,39.4,38.7,29.70,ENE,75,10.4,44.4,97,0.00,,,0.00,VWS V14.01,2013-04-01 04:58:00,
2013-04-01 01:35:00,39.4,38.9,29.70,NNW,333,2.6,44.4,98,0.00,,,0.00,VWS V14.01,2013-04-01 05:35:00,
2013-04-01 01:41:00,39.3,38.8,29.70,NNW,345,10.8,44.4,98,0.00,,,0.00,VWS V14.01,2013-04-01 05:41:00,
2013-04-01 01:47:00,39.4,38.9,29.70,ENE,60,0.0,44.4,98,0.00,,,0.00,VWS V14.01,2013-04-01 05:47:00,
2013-04-01 01:52:00,39.4,38.8,29.70,NW,319,24.4,44.4,98,0.00,,,0.00,VWS V14.01,2013-04-01 05:52:00,
2013-04-01 01:57:00,39.4,38.7,29.70,North,0,13.4,18.8,97,0.00,,,0.00,VWS V14.01,2013-04-01 05:57:00,
2013-04-01 02:02:00,39.5,38.7,29.70,North,357,14.4,29.5,97,0.00,,,0.00,VWS V14.01,2013-04-01 06:02:00,
2013-04-01 02:07:00,39.3,38.4,29.70,East,101,7.6,29.5,96,0.00,,,0.00,VWS V14.01,2013-04-01 06:07:00,
2013-04-01 02:13:00,39.3,38.3,29.70,NW,323,12.7,29.5,96,0.00,,,0.00,VWS V14.01,2013-04-01 06:13:00,
2013-04-01 02:18:00,39.3,38.3,29.70,North,356,12.1,29.5,96,0.00,,,0.00,VWS V14.01,2013-04-01 06:18:00,
2013-04-01 02:23:00,39.2,38.1,29.70,NE,53,4.5,29.5,96,0.00,,,0.00,VWS V14.01,2013-04-01 06:23:00,
2013-04-01 02:28:00,39.3,38.0,29.70,North,359,3.4,32.1,95,0.00,,,0.00,VWS V14.01,2013-04-01 06:28:00,
2013-04-01 02:33:00,39.3,38.0,29.70,NNW,332,17.1,32.1,95,0.00,,,0.00,VWS V14.01,2013-04-01 06:33:00,
2013-04-01 02:39:00,39.3,37.9,29.70,ENE,69,0.0,32.1,94,0.00,,,0.00,VWS V14.01,2013-04-01 06:39:00,
2013-04-01 02:44:00,39.5,37.9,29.70,NNW,336,13.0,32.1,94,0.00,,,0.00,VWS V14.01,2013-04-01 06:44:00,
2013-04-01 02:49:00,39.4,37.8,29.70,NNE,17,4.1,32.1,94,0.00,,,0.00,VWS V14.01,2013-04-01 06:49:00,
2013-04-01 02:54:00,39.7,38.0,29.70,NNW,339,0.0,32.1,94,0.00,,,0.00,VWS V14.01,2013-04-01 06:54:00,
2013-04-01 02:59:00,39.7,37.9,29.69,NE,39,3.4,16.6,93,0.00,,,0.00,VWS V14.01,2013-04-01 06:59:00,
2013-04-01 03:05:00,39.7,37.9,29.70,NNW,333,13.2,28.9,93,0.00,,,0.00,VWS V14.01,2013-04-01 07:05:00,
2013-04-01 03:10:00,39.7,37.9,29.70,NE,35,9.5,33.0,93,0.00,,,0.00,VWS V14.01,2013-04-01 07:10:00,
2013-04-01 03:15:00,39.8,38.0,29.70,NNW,347,20.3,43.2,93,0.00,,,0.00,VWS V14.01,2013-04-01 07:15:00,
2013-04-01 03:20:00,39.7,38.2,29.70,NNE,31,6.0,43.2,94,0.00,,,0.00,VWS V14.01,2013-04-01 07:20:00,
2013-04-01 03:26:00,39.6,38.3,29.70,NE,48,4.8,43.2,95,0.00,,,0.00,VWS V14.01,2013-04-01 07:26:00,
2013-04-01 03:31:00,39.4,38.2,29.70,North,353,12.9,43.2,96,0.00,,,0.00,VWS V14.01,2013-04-01 07:31:00,
2013-04-01 03:36:00,39.1,38.1,29.70,North,356,4.5,43.2,96,0.00,,,0.00,VWS V14.01,2013-04-01 07:36:00,
2013-04-01 03:42:00,39.0,38.0,29.70,NW,308,16.4,43.2,96,0.00,,,0.00,VWS V14.01,2013-04-01 07:42:00,
2013-04-01 03:47:00,38.9,38.0,29.69,NNE,15,4.3,43.2,96,0.00,,,0.00,VWS V14.01,2013-04-01 07:47:00,
2013-04-01 03:52:00,39.0,38.1,29.69,NW,316,22.9,43.2,96,0.00,,,0.00,VWS V14.01,2013-04-01 07:52:00,
2013-04-01 03:57:00,39.0,38.2,29.69,NW,315,4.1,19.8,97,0.00,,,0.00,VWS V14.01,2013-04-01 07:57:00,
2013-04-01 04:03:00,39.0,38.2,29.69,North,359,2.2,28.7,97,0.00,,,0.00,VWS V14.01,2013-04-01 08:03:00,
2013-04-01 04:08:00,39.1,38.3,29.69,NNW,342,5.0,28.7,97,0.00,,,0.00,VWS V14.01,2013-04-01 08:08:00,
2013-04-01 04:13:00,39.1,38.3,29.69,NNE,32,3.9,32.1,97,0.00,,,0.00,VWS V14.01,2013-04-01 08:13:00,
2013-04-01 04:18:00,39.1,38.3,29.69,NNE,28,7.3,37.8,97,0.00,,,0.00,VWS V14.01,2013-04-01 08:18:00,
2013-04-01 04:23:00,39.3,38.5,29.69,WNW,291,3.5,37.8,97,0.00,,,0.00,VWS V14.01,2013-04-01 08:23:00,
2013-04-01 04:29:00,39.2,38.4,29.69,NNE,27,8.4,37.8,97,0.00,,,0.00,VWS V14.01,2013-04-01 08:29:00,
2013-04-01 04:34:00,39.2,38.3,29.68,North,352,17.7,37.8,97,0.00,,,0.00,VWS V14.01,2013-04-01 08:34:00,
2013-04-01 04:39:00,39.3,38.4,29.68,North,356,2.1,38.0,97,0.00,,,0.00,VWS V14.01,2013-04-01 08:39:00,
2013-04-01 04:44:00,39.5,38.6,29.68,NNW,340,15.3,38.0,97,0.00,,,0.00,VWS V14.01,2013-04-01 08:44:00,
2013-04-01 04:49:00,39.4,38.5,29.69,NNW,336,3.7,38.0,97,0.00,,,0.00,VWS V14.01,2013-04-01 08:49:00,
2013-04-01 04:55:00,39.5,38.7,29.69,North,359,11.9,38.0,97,0.00,,,0.00,VWS V14.01,2013-04-01 08:55:00,
2013-04-01 05:00:00,39.6,38.8,29.69,NNE,30,21.3,31.9,97,0.00,,,0.00,VWS V14.01,2013-04-01 09:00:00,
2013-04-01 05:05:00,39.6,38.8,29.69,NNE,15,8.8,31.9,97,0.00,,,0.00,VWS V14.01,2013-04-01 09:05:00,
2013-04-01 05:11:00,39.5,38.7,29.69,SE,125,12.1,35.0,97,0.00,,,0.00,VWS V14.01,2013-04-01 09:11:00,
2013-04-01 05:16:00,39.5,38.7,29.69,NNE,13,9.9,35.0,97,0.00,,,0.00,VWS V14.01,2013-04-01 09:16:00,
2013-04-01 05:22:00,39.4,38.5,29.69,North,359,15.1,39.9,97,0.01,,,0.00,VWS V14.01,2013-04-01 09:22:00,
2013-04-01 05:27:00,39.5,38.7,29.69,East,100,10.8,39.9,97,0.01,,,0.01,VWS V14.01,2013-04-01 09:27:00,
2013-04-01 05:32:00,39.5,38.7,29.69,NW,309,5.4,39.9,97,0.01,,,0.01,VWS V14.01,2013-04-01 09:32:00,
2013-04-01 05:38:00,39.4,38.7,29.69,North,359,12.3,45.7,97,0.01,,,0.01,VWS V14.01,2013-04-01 09:38:00,
2013-04-01 05:43:00,39.3,38.6,29.69,NNW,342,14.9,45.7,97,0.01,,,0.01,VWS V14.01,2013-04-01 09:43:00,
2013-04-01 05:48:00,39.2,38.6,29.69,North,357,18.6,45.7,98,0.01,,,0.01,VWS V14.01,2013-04-01 09:48:00,
2013-04-01 05:53:00,39.2,38.5,29.69,NNE,18,24.0,45.7,98,0.01,,,0.01,VWS V14.01,2013-04-01 09:53:00,
2013-04-01 05:59:00,39.1,38.3,29.69,SSE,167,13.8,34.1,97,0.01,,,0.01,VWS V14.01,2013-04-01 09:59:00,
2013-04-01 06:04:00,39.1,38.3,29.69,NNE,31,11.4,34.1,97,0.01,,,0.01,VWS V14.01,2013-04-01 10:04:00,
2013-04-01 06:09:00,39.0,38.2,29.69,NNW,332,16.8,34.1,97,0.01,,,0.01,VWS V14.01,2013-04-01 10:09:00,
2013-04-01 06:14:00,39.1,38.3,29.69,East,91,13.4,39.0,97,0.01,,,0.01,VWS V14.01,2013-04-01 10:14:00,
2013-04-01 06:20:00,39.0,38.3,29.70,NNW,335,11.2,39.0,97,0.01,,,0.01,VWS V14.01,2013-04-01 10:20:00,
2013-04-01 06:25:00,38.9,38.2,29.70,NNW,345,3.5,39.0,97,0.01,,,0.01,VWS V14.01,2013-04-01 10:25:00,
2013-04-01 06:30:00,38.8,38.0,29.70,NNW,335,0.0,39.0,97,0.01,,,0.01,VWS V14.01,2013-04-01 10:30:00,
2013-04-01 06:35:00,38.7,38.0,29.70,NNE,18,17.9,39.0,97,0.01,,,0.01,VWS V14.01,2013-04-01 10:35:00,
2013-04-01 06:41:00,38.7,38.0,29.70,NE,39,10.8,39.0,97,0.01,,,0.01,VWS V14.01,2013-04-01 10:41:00,
2013-04-01 06:47:00,38.6,37.8,29.71,North,4,8.0,42.1,97,0.01,,,0.01,VWS V14.01,2013-04-01 10:47:00,
2013-04-01 06:52:00,38.5,37.6,29.71,NNW,346,13.4,42.1,97,0.01,,,0.01,VWS V14.01,2013-04-01 10:52:00,
2013-04-01 06:57:00,38.4,37.3,29.71,North,1,22.7,31.3,96,0.00,,,0.01,VWS V14.01,2013-04-01 10:57:00,
2013-04-01 07:02:00,38.3,37.0,29.71,North,354,8.9,35.6,95,0.00,,,0.01,VWS V14.01,2013-04-01 11:02:00,
2013-04-01 07:07:00,38.4,37.3,29.71,North,359,19.8,39.5,96,0.00,,,0.01,VWS V14.01,2013-04-01 11:07:00,
2013-04-01 07:13:00,38.2,37.2,29.71,NE,46,17.1,39.5,96,0.00,,,0.01,VWS V14.01,2013-04-01 11:13:00,
2013-04-01 07:18:00,38.2,37.1,29.72,NW,325,20.1,39.5,96,0.00,,,0.01,VWS V14.01,2013-04-01 11:18:00,
2013-04-01 07:23:00,38.1,37.0,29.72,NNE,20,17.0,39.5,96,0.00,,,0.01,VWS V14.01,2013-04-01 11:23:00,
2013-04-01 07:29:00,38.2,37.0,29.72,North,359,11.4,39.5,95,0.00,,,0.01,VWS V14.01,2013-04-01 11:29:00,
2013-04-01 07:34:00,37.9,36.4,29.72,NNE,25,20.1,39.5,94,0.00,,,0.01,VWS V14.01,2013-04-01 11:34:00,
2013-04-01 07:39:00,38.0,36.4,29.72,ENE,76,8.0,39.5,94,0.00,,,0.01,VWS V14.01,2013-04-01 11:39:00,
2013-04-01 07:44:00,38.0,36.4,29.73,NNE,25,11.7,39.5,94,0.00,,,0.01,VWS V14.01,2013-04-01 11:44:00,
2013-04-01 07:50:00,38.0,36.6,29.73,North,7,2.1,39.5,95,0.00,,,0.01,VWS V14.01,2013-04-01 11:50:00,
2013-04-01 07:55:00,37.9,36.4,29.73,NE,52,15.1,39.5,94,0.00,,,0.01,VWS V14.01,2013-04-01 11:55:00,
2013-04-01 08:00:00,37.8,36.2,29.73,NE,42,20.3,35.0,94,0.00,,,0.01,VWS V14.01,2013-04-01 12:00:00,
2013-04-01 08:05:00,37.7,36.2,29.73,NNE,15,4.3,35.0,94,0.00,,,0.01,VWS V14.01,2013-04-01 12:05:00,
2013-04-01 08:10:00,37.7,36.3,29.74,NNE,32,5.2,43.6,94,0.00,,,0.01,VWS V14.01,2013-04-01 12:10:00,
2013-04-01 08:16:00,37.8,36.3,29.74,NW,312,7.1,43.6,94,0.00,,,0.01,VWS V14.01,2013-04-01 12:16:00,
2013-04-01 08:21:00,37.7,36.1,29.74,NE,49,0.7,43.6,94,0.00,,,0.01,VWS V14.01,2013-04-01 12:21:00,
2013-04-01 08:26:00,37.5,36.0,29.74,NNW,332,26.8,43.6,94,0.00,,,0.01,VWS V14.01,2013-04-01 12:26:00,
2013-04-01 08:32:00,37.2,35.9,29.74,NNE,15,9.9,43.6,95,0.00,,,0.01,VWS V14.01,2013-04-01 12:32:00,
2013-04-01 08:37:00,36.9,35.5,29.75,WNW,302,30.4,43.6,95,0.00,,,0.01,VWS V14.01,2013-04-01 12:37:00,
2013-04-01 08:42:00,36.2,34.8,29.76,ESE,108,19.2,43.6,94,0.00,,,0.01,VWS V14.01,2013-04-01 12:42:00,
2013-04-01 08:47:00,35.4,34.1,29.76,NNE,14,22.4,53.9,95,0.00,,,0.01,VWS V14.01,2013-04-01 12:47:00,
2013-04-01 08:52:00,34.9,33.5,29.76,NNW,332,13.2,53.9,95,0.00,,,0.01,VWS V14.01,2013-04-01 12:52:00,
2013-04-01 08:58:00,34.4,32.6,29.76,NNE,28,8.6,28.0,93,0.00,,,0.01,VWS V14.01,2013-04-01 12:58:00,
2013-04-01 09:03:00,34.0,31.8,29.76,North,7,14.2,52.8,92,0.00,,,0.01,VWS V14.01,2013-04-01 13:03:00,
2013-04-01 09:08:00,34.1,32.2,29.76,NNE,13,16.6,52.8,93,0.00,,,0.01,VWS V14.01,2013-04-01 13:08:00,
2013-04-01 09:13:00,34.2,32.1,29.76,NNE,18,24.0,52.8,92,0.00,,,0.01,VWS V14.01,2013-04-01 13:13:00,
2013-04-01 09:18:00,34.1,30.6,29.76,North,7,16.4,52.8,87,0.00,,,0.01,VWS V14.01,2013-04-01 13:18:00,
2013-04-01 09:23:00,34.0,29.4,29.76,NW,325,8.9,52.8,83,0.00,,,0.01,VWS V14.01,2013-04-01 13:23:00,
2013-04-01 09:29:00,34.4,29.9,29.76,ENE,73,9.9,52.8,83,0.00,,,0.01,VWS V14.01,2013-04-01 13:29:00,
2013-04-01 09:34:00,34.6,29.8,29.76,NE,51,11.4,52.8,82,0.00,,,0.01,VWS V14.01,2013-04-01 13:34:00,
2013-04-01 09:39:00,34.8,29.3,29.76,NNE,25,20.1,52.8,80,0.00,,,0.01,VWS V14.01,2013-04-01 13:39:00,
2013-04-01 09:44:00,34.9,29.0,29.76,NE,55,12.9,52.8,79,0.00,,,0.01,VWS V14.01,2013-04-01 13:44:00,
2013-04-01 09:49:00,34.9,29.1,29.76,NNW,336,13.4,52.8,79,0.00,,,0.01,VWS V14.01,2013-04-01 13:49:00,
2013-04-01 09:55:00,34.7,28.6,29.77,NNE,13,9.7,52.8,78,0.00,,,0.01,VWS V14.01,2013-04-01 13:55:00,
2013-04-01 10:00:00,34.5,28.0,29.77,North,3,20.5,39.0,77,0.00,,,0.01,VWS V14.01,2013-04-01 14:00:00,
2013-04-01 10:05:00,34.0,27.4,29.77,NNW,338,12.3,40.5,76,0.01,,,0.02,VWS V14.01,2013-04-01 14:05:00,
2013-04-01 10:10:00,34.1,27.8,29.77,NE,38,16.8,40.5,77,0.01,,,0.02,VWS V14.01,2013-04-01 14:10:00,
2013-04-01 10:15:00,33.7,27.7,29.77,ESE,110,21.6,62.6,78,0.01,,,0.02,VWS V14.01,2013-04-01 14:15:00,
2013-04-01 10:21:00,33.3,28.0,29.78,North,359,13.4,62.6,81,0.01,,,0.02,VWS V14.01,2013-04-01 14:21:00,
2013-04-01 10:27:00,33.0,29.2,29.78,ENE,65,13.2,62.6,86,0.01,,,0.02,VWS V14.01,2013-04-01 14:27:00,
2013-04-01 10:32:00,32.3,29.0,29.79,North,4,9.1,62.6,87,0.01,,,0.02,VWS V14.01,2013-04-01 14:32:00,
2013-04-01 10:37:00,32.0,29.3,29.79,North,359,13.0,62.6,90,0.01,,,0.02,VWS V14.01,2013-04-01 14:37:00,
2013-04-01 10:43:00,32.0,29.5,29.79,NNE,27,19.4,62.6,90,0.01,,,0.02,VWS V14.01,2013-04-01 14:43:00,
2013-04-01 10:48:00,31.6,29.2,29.79,North,359,12.5,62.6,91,0.01,,,0.02,VWS V14.01,2013-04-01 14:48:00,
2013-04-01 10:53:00,31.9,29.0,29.79,North,359,10.6,62.6,89,0.01,,,0.02,VWS V14.01,2013-04-01 14:53:00,
2013-04-01 10:58:00,32.0,28.6,29.79,NNE,14,15.7,37.3,87,0.01,,,0.02,VWS V14.01,2013-04-01 14:58:00,
2013-04-01 11:04:00,32.1,28.1,29.79,ENE,62,15.5,37.3,85,0.01,,,0.02,VWS V14.01,2013-04-01 15:04:00,
2013-04-01 11:09:00,32.4,28.1,29.79,North,352,4.5,37.3,84,0.01,,,0.02,VWS V14.01,2013-04-01 15:09:00,
2013-04-01 11:14:00,32.4,28.1,29.79,East,80,18.1,37.3,84,0.01,,,0.02,VWS V14.01,2013-04-01 15:14:00,
2013-04-01 11:19:00,32.7,27.9,29.79,North,350,5.8,37.3,82,0.01,,,0.02,VWS V14.01,2013-04-01 15:19:00,
2013-04-01 11:25:00,32.8,27.8,29.79,North,8,12.1,37.3,82,0.01,,,0.02,VWS V14.01,2013-04-01 15:25:00,
2013-04-01 11:30:00,32.9,27.3,29.79,North,3,9.3,52.9,80,0.01,,,0.02,VWS V14.01,2013-04-01 15:30:00,
2013-04-01 11:35:00,32.9,27.5,29.80,NNW,332,18.5,52.9,80,0.01,,,0.02,VWS V14.01,2013-04-01 15:35:00,
2013-04-01 11:40:00,32.7,27.3,29.80,East,91,21.6,52.9,80,0.01,,,0.02,VWS V14.01,2013-04-01 15:40:00,
2013-04-01 11:45:00,32.1,28.2,29.80,NNW,330,11.6,52.9,86,0.01,,,0.02,VWS V14.01,2013-04-01 15:45:00,
2013-04-01 11:50:00,31.6,29.0,29.80,NNW,339,33.0,58.2,90,0.01,,,0.02,VWS V14.01,2013-04-01 15:50:00,
2013-04-01 11:56:00,31.3,29.2,29.81,NNW,335,6.7,58.2,92,0.01,,,0.02,VWS V14.01,2013-04-01 15:56:00,
2013-04-01 12:01:00,31.1,29.4,29.81,North,350,7.6,31.9,93,0.00,,,0.02,VWS V14.01,2013-04-01 16:01:00,
2013-04-01 12:07:00,31.1,28.9,29.81,NNW,342,20.7,52.6,91,0.00,,,0.02,VWS V14.01,2013-04-01 16:07:00,
2013-04-01 12:12:00,31.0,29.1,29.81,North,359,9.9,52.6,92,0.00,,,0.02,VWS V14.01,2013-04-01 16:12:00,
2013-04-01 12:17:00,31.1,28.2,29.81,NNW,333,23.9,52.6,89,0.00,,,0.02,VWS V14.01,2013-04-01 16:17:00,
2013-04-01 12:22:00,31.1,27.6,29.81,North,359,10.4,52.8,87,0.00,,,0.02,VWS V14.01,2013-04-01 16:22:00,
2013-04-01 12:28:00,31.7,27.9,29.81,ENE,76,14.9,52.8,86,0.00,,,0.02,VWS V14.01,2013-04-01 16:28:00,
2013-04-01 12:33:00,32.3,27.3,29.81,NNE,20,9.1,52.8,82,0.00,,,0.02,VWS V14.01,2013-04-01 16:33:00,
2013-04-01 12:38:00,32.6,27.5,29.81,NW,323,3.7,52.8,81,0.00,,,0.02,VWS V14.01,2013-04-01 16:38:00,
2013-04-01 12:43:00,32.2,27.1,29.81,East,89,8.4,52.8,81,0.00,,,0.02,VWS V14.01,2013-04-01 16:43:00,
2013-04-01 12:49:00,31.0,28.4,29.82,NNE,31,19.8,52.8,90,0.00,,,0.02,VWS V14.01,2013-04-01 16:49:00,
2013-04-01 12:54:00,29.7,27.9,29.83,NW,316,0.0,52.8,93,0.00,,,0.02,VWS V14.01,2013-04-01 16:54:00,
2013-04-01 12:59:00,28.8,27.2,29.83,WNW,297,3.4,45.7,94,0.00,,,0.02,VWS V14.01,2013-04-01 16:59:00,
2013-04-01 13:04:00,28.5,27.0,29.83,ENE,68,9.7,45.7,94,0.00,,,0.02,VWS V14.01,2013-04-01 17:04:00,
2013-04-01 13:09:00,28.1,26.7,29.83,NNE,21,12.1,45.7,94,0.00,,,0.02,VWS V14.01,2013-04-01 17:09:00,
2013-04-01 13:15:00,27.8,26.4,29.83,North,359,10.8,45.7,94,0.00,,,0.02,VWS V14.01,2013-04-01 17:15:00,
2013-04-01 13:20:00,27.5,26.1,29.83,NNW,333,0.7,45.7,94,0.00,,,0.02,VWS V14.01,2013-04-01 17:20:00,
2013-04-01 13:25:00,27.6,26.3,29.83,NW,326,3.2,45.7,95,0.00,,,0.02,VWS V14.01,2013-04-01 17:25:00,
2013-04-01 13:30:00,27.5,26.0,29.84,East,79,18.3,45.7,94,0.00,,,0.02,VWS V14.01,2013-04-01 17:30:00,
2013-04-01 13:36:00,27.4,26.0,29.84,NE,46,5.4,45.7,94,0.00,,,0.02,VWS V14.01,2013-04-01 17:36:00,
2013-04-01 13:41:00,27.5,26.1,29.84,NE,51,15.8,45.7,94,0.00,,,0.02,VWS V14.01,2013-04-01 17:41:00,
2013-04-01 13:47:00,27.5,26.1,29.84,North,359,6.5,45.7,94,0.00,,,0.02,VWS V14.01,2013-04-01 17:47:00,
2013-04-01 13:52:00,27.5,26.0,29.84,NE,35,11.6,45.7,94,0.00,,,0.02,VWS V14.01,2013-04-01 17:52:00,
2013-04-01 13:57:00,27.5,26.0,29.84,East,82,35.2,35.2,94,0.00,,,0.02,VWS V14.01,2013-04-01 17:57:00,
2013-04-01 14:02:00,27.6,26.2,29.84,ENE,62,1.5,35.2,94,0.00,,,0.02,VWS V14.01,2013-04-01 18:02:00,
2013-04-01 14:07:00,27.8,26.3,29.84,North,6,8.9,37.8,94,0.00,,,0.02,VWS V14.01,2013-04-01 18:07:00,
2013-04-01 14:13:00,27.9,26.5,29.84,North,359,0.0,37.8,94,0.00,,,0.02,VWS V14.01,2013-04-01 18:13:00,
2013-04-01 14:18:00,28.3,26.8,29.84,ENE,66,4.5,37.8,94,0.00,,,0.02,VWS V14.01,2013-04-01 18:18:00,
2013-04-01 14:23:00,28.8,27.3,29.84,North,3,0.0,37.8,94,0.00,,,0.02,VWS V14.01,2013-04-01 18:23:00,
2013-04-01 14:28:00,29.0,27.3,29.84,NNW,345,10.8,37.8,93,0.00,,,0.02,VWS V14.01,2013-04-01 18:28:00,
2013-04-01 14:33:00,28.8,27.2,29.85,North,10,4.5,37.8,94,0.00,,,0.02,VWS V14.01,2013-04-01 18:33:00,
2013-04-01 14:39:00,28.7,27.3,29.85,North,356,14.2,37.8,94,0.00,,,0.02,VWS V14.01,2013-04-01 18:39:00,
2013-04-01 14:44:00,28.7,27.3,29.85,NE,46,0.0,37.8,94,0.00,,,0.02,VWS V14.01,2013-04-01 18:44:00,
2013-04-01 14:49:00,28.7,27.2,29.84,ESE,117,14.9,37.8,94,0.00,,,0.02,VWS V14.01,2013-04-01 18:49:00,
2013-04-01 14:54:00,29.0,27.4,29.84,East,83,5.2,37.8,94,0.00,,,0.02,VWS V14.01,2013-04-01 18:54:00,
2013-04-01 15:00:00,29.3,27.7,29.84,North,4,3.0,33.0,94,0.00,,,0.02,VWS V14.01,2013-04-01 19:00:00,
2013-04-01 15:05:00,30.1,27.3,29.84,West,276,3.4,33.0,89,0.00,,,0.02,VWS V14.01,2013-04-01 19:05:00,
2013-04-01 15:10:00,30.6,27.3,29.84,NW,305,9.9,34.3,87,0.00,,,0.02,VWS V14.01,2013-04-01 19:10:00,
2013-04-01 15:15:00,31.7,28.2,29.84,East,96,0.0,34.3,87,0.00,,,0.02,VWS V14.01,2013-04-01 19:15:00,
2013-04-01 15:21:00,31.7,27.6,29.84,NNW,340,11.6,34.3,84,0.00,,,0.02,VWS V14.01,2013-04-01 19:21:00,
2013-04-01 15:26:00,31.0,28.9,29.85,North,359,8.4,42.1,92,0.00,,,0.02,VWS V14.01,2013-04-01 19:26:00,
2013-04-01 15:31:00,30.1,25.9,29.84,ESE,104,19.6,42.1,84,0.00,,,0.02,VWS V14.01,2013-04-01 19:31:00,
2013-04-01 15:37:00,30.6,26.7,29.84,East,87,0.0,42.1,85,0.00,,,0.02,VWS V14.01,2013-04-01 19:37:00,
2013-04-01 15:42:00,31.8,27.0,29.84,SE,145,8.0,42.1,82,0.00,,,0.02,VWS V14.01,2013-04-01 19:42:00,
2013-04-01 15:47:00,32.7,27.4,29.84,ESE,107,0.0,42.1,80,0.00,,,0.02,VWS V14.01,2013-04-01 19:47:00,
2013-04-01 15:52:00,33.1,27.5,29.85,NW,323,0.0,42.1,80,0.00,,,0.02,VWS V14.01,2013-04-01 19:52:00,
2013-04-01 15:57:00,32.7,27.0,29.85,NE,44,6.2,21.8,79,0.00,,,0.02,VWS V14.01,2013-04-01 19:57:00,
2013-04-01 16:03:00,32.6,27.6,29.85,NE,52,7.5,22.9,82,0.00,,,0.02,VWS V14.01,2013-04-01 20:03:00,
2013-04-01 16:08:00,32.4,26.5,29.85,North,0,7.1,34.1,79,0.00,,,0.02,VWS V14.01,2013-04-01 20:08:00,
2013-04-01 16:13:00,32.4,25.8,29.85,ENE,76,20.1,34.1,76,0.00,,,0.02,VWS V14.01,2013-04-01 20:13:00,
2013-04-01 16:18:00,32.6,25.9,29.85,NNE,15,9.3,34.1,76,0.00,,,0.02,VWS V14.01,2013-04-01 20:18:00,
2013-04-01 16:23:00,32.8,25.9,29.85,NW,307,14.0,34.1,75,0.00,,,0.02,VWS V14.01,2013-04-01 20:23:00,
2013-04-01 16:29:00,33.3,25.1,29.85,NNW,347,12.3,34.1,71,0.00,,,0.02,VWS V14.01,2013-04-01 20:29:00,
2013-04-01 16:34:00,33.5,24.3,29.85,NNW,332,7.1,34.1,69,0.01,,,0.03,VWS V14.01,2013-04-01 20:34:00,
2013-04-01 16:39:00,33.5,23.7,29.84,ESE,107,4.8,39.3,67,0.01,,,0.03,VWS V14.01,2013-04-01 20:39:00,
2013-04-01 16:44:00,33.4,21.3,29.85,North,359,11.7,39.3,61,0.01,,,0.03,VWS V14.01,2013-04-01 20:44:00,
2013-04-01 16:49:00,33.3,21.5,29.85,NNW,336,10.4,39.3,62,0.01,,,0.03,VWS V14.01,2013-04-01 20:49:00,
2013-04-01 16:54:00,33.3,21.6,29.85,East,83,0.0,39.3,62,0.01,,,0.03,VWS V14.01,2013-04-01 20:54:00,
2013-04-01 16:59:00,33.2,20.6,29.85,NE,46,9.7,28.3,59,0.01,,,0.03,VWS V14.01,2013-04-01 20:59:00,
2013-04-01 17:05:00,33.1,20.3,29.85,NNE,15,15.3,29.1,59,0.01,,,0.03,VWS V14.01,2013-04-01 21:05:00,
2013-04-01 17:10:00,33.1,20.7,29.85,ENE,66,15.5,38.8,60,0.01,,,0.03,VWS V14.01,2013-04-01 21:10:00,
2013-04-01 17:15:00,33.1,18.3,29.85,NNW,339,5.4,38.8,54,0.01,,,0.03,VWS V14.01,2013-04-01 21:15:00,
2013-04-01 17:20:00,33.0,17.3,29.85,NNW,336,10.3,39.9,52,0.01,,,0.03,VWS V14.01,2013-04-01 21:20:00,
2013-04-01 17:25:00,32.8,17.1,29.85,North,352,10.6,52.8,52,0.01,,,0.03,VWS V14.01,2013-04-01 21:25:00,
2013-04-01 17:31:00,33.1,17.0,29.86,NW,314,9.5,52.8,51,0.01,,,0.03,VWS V14.01,2013-04-01 21:31:00,
2013-04-01 17:37:00,33.0,16.2,29.86,North,11,4.5,52.8,50,0.01,,,0.03,VWS V14.01,2013-04-01 21:37:00,
2013-04-01 17:42:00,33.5,16.1,29.86,East,97,34.9,52.8,48,0.01,,,0.03,VWS V14.01,2013-04-01 21:42:00,
2013-04-01 17:48:00,34.1,17.0,29.86,NNE,28,2.6,52.8,49,0.01,,,0.03,VWS V14.01,2013-04-01 21:48:00,
2013-04-01 17:53:00,34.5,16.9,29.86,North,4,0.0,52.8,48,0.01,,,0.03,VWS V14.01,2013-04-01 21:53:00,
2013-04-01 17:58:00,35.2,16.9,29.86,NW,322,7.6,37.5,47,0.00,,,0.03,VWS V14.01,2013-04-01 21:58:00,
2013-04-01 18:03:00,35.2,16.7,29.87,ESE,111,3.7,37.5,46,0.00,,,0.03,VWS V14.01,2013-04-01 22:03:00,
2013-04-01 18:08:00,35.2,15.9,29.86,North,359,11.6,47.3,45,0.00,,,0.03,VWS V14.01,2013-04-01 22:08:00,
2013-04-01 18:13:00,34.5,15.3,29.87,ENE,70,35.2,47.3,45,0.00,,,0.03,VWS V14.01,2013-04-01 22:13:00,
2013-04-01 18:18:00,33.7,15.4,29.87,NE,38,19.8,47.3,46,0.00,,,0.03,VWS V14.01,2013-04-01 22:18:00,
2013-04-01 18:24:00,33.4,15.4,29.87,NE,53,26.8,47.3,47,0.00,,,0.03,VWS V14.01,2013-04-01 22:24:00,
2013-04-01 18:29:00,33.0,15.5,29.87,NNW,339,11.2,47.3,48,0.00,,,0.03,VWS V14.01,2013-04-01 22:29:00,
2013-04-01 18:34:00,32.7,15.1,29.87,ENE,77,37.1,52.0,48,0.00,,,0.03,VWS V14.01,2013-04-01 22:34:00,
2013-04-01 18:39:00,32.6,15.1,29.87,NE,44,10.8,52.0,48,0.00,,,0.03,VWS V14.01,2013-04-01 22:39:00,
2013-04-01 18:44:00,32.8,15.4,29.87,NNE,21,13.4,52.0,48,0.00,,,0.03,VWS V14.01,2013-04-01 22:44:00,
2013-04-01 18:49:00,32.6,15.6,29.87,ENE,60,2.2,52.0,49,0.00,,,0.03,VWS V14.01,2013-04-01 22:49:00,
2013-04-01 18:55:00,32.7,15.7,29.87,NW,318,8.4,52.0,49,0.00,,,0.03,VWS V14.01,2013-04-01 22:55:00,
2013-04-01 19:00:00,32.8,15.2,29.87,NE,44,3.7,38.0,48,0.00,,,0.03,VWS V14.01,2013-04-01 23:00:00,
2013-04-01 19:05:00,32.6,15.3,29.87,North,359,5.2,38.0,48,0.00,,,0.03,VWS V14.01,2013-04-01 23:05:00,
2013-04-01 19:10:00,32.2,15.3,29.87,WNW,298,19.0,38.0,49,0.00,,,0.03,VWS V14.01,2013-04-01 23:10:00,
2013-04-01 19:15:00,31.8,15.0,29.88,NE,52,3.2,38.0,49,0.00,,,0.03,VWS V14.01,2013-04-01 23:15:00,
2013-04-01 19:20:00,31.3,14.9,29.88,North,354,15.7,38.0,50,0.00,,,0.03,VWS V14.01,2013-04-01 23:20:00,
2013-04-01 19:26:00,30.8,14.7,29.88,East,79,22.2,39.9,51,0.00,,,0.03,VWS V14.01,2013-04-01 23:26:00,
2013-04-01 19:31:00,30.5,14.8,29.88,NE,51,6.0,43.2,52,0.00,,,0.03,VWS V14.01,2013-04-01 23:31:00,
2013-04-01 19:36:00,30.4,14.9,29.88,North,359,1.9,43.2,52,0.00,,,0.03,VWS V14.01,2013-04-01 23:36:00,
2013-04-01 19:41:00,30.2,14.7,29.89,East,80,34.5,43.2,52,0.00,,,0.03,VWS V14.01,2013-04-01 23:41:00,
2013-04-01 19:47:00,30.0,14.8,29.89,NNE,18,25.4,49.6,53,0.00,,,0.03,VWS V14.01,2013-04-01 23:47:00,
2013-04-01 19:52:00,30.0,15.2,29.89,ESE,110,0.0,49.6,54,0.00,,,0.03,VWS V14.01,2013-04-01 23:52:00,
2013-04-01 19:57:00,29.9,15.4,29.89,ENE,65,0.9,5.6,54,0.00,,,0.03,VWS V14.01,2013-04-01 23:57:00,
2013-04-01 20:02:00,29.7,15.1,29.89,ESE,110,6.3,26.3,54,0.00,,,0.03,VWS V14.01,2013-04-02 00:02:00,
2013-04-01 20:07:00,29.6,15.1,29.89,NNE,22,11.9,34.9,54,0.00,,,0.03,VWS V14.01,2013-04-02 00:07:00,
2013-04-01 20:13:00,29.4,15.0,29.89,North,7,8.2,35.6,54,0.00,,,0.03,VWS V14.01,2013-04-02 00:13:00,
2013-04-01 20:18:00,29.4,15.2,29.89,ESE,107,10.6,35.6,55,0.00,,,0.03,VWS V14.01,2013-04-02 00:18:00,
2013-04-01 20:23:00,29.2,15.1,29.90,North,359,8.2,35.6,55,0.00,,,0.03,VWS V14.01,2013-04-02 00:23:00,
2013-04-01 20:29:00,29.2,15.4,29.90,ESE,121,0.0,35.6,56,0.00,,,0.03,VWS V14.01,2013-04-02 00:29:00,
2013-04-01 20:34:00,29.0,15.1,29.90,NW,304,16.0,35.6,56,0.00,,,0.03,VWS V14.01,2013-04-02 00:34:00,
2013-04-01 20:39:00,28.9,14.9,29.90,SSW,194,5.6,35.6,55,0.00,,,0.03,VWS V14.01,2013-04-02 00:39:00,
2013-04-01 20:44:00,28.8,15.0,29.90,NNW,345,6.0,35.6,56,0.00,,,0.03,VWS V14.01,2013-04-02 00:44:00,
2013-04-01 20:50:00,28.7,15.0,29.90,ESE,104,8.4,35.6,56,0.00,,,0.03,VWS V14.01,2013-04-02 00:50:00,
2013-04-01 20:55:00,28.6,14.9,29.91,NNE,22,13.0,35.6,56,0.00,,,0.03,VWS V14.01,2013-04-02 00:55:00,
2013-04-01 21:00:00,28.6,14.9,29.91,ENE,73,17.1,37.8,56,0.00,,,0.03,VWS V14.01,2013-04-02 01:00:00,
2013-04-01 21:05:00,28.5,14.8,29.91,SSE,166,9.9,37.8,56,0.00,,,0.03,VWS V14.01,2013-04-02 01:05:00,
2013-04-01 21:10:00,28.3,15.0,29.91,East,91,9.9,37.8,57,0.00,,,0.03,VWS V14.01,2013-04-02 01:10:00,
2013-04-01 21:16:00,28.3,15.2,29.92,NE,49,3.2,37.8,57,0.00,,,0.03,VWS V14.01,2013-04-02 01:16:00,
2013-04-01 21:21:00,28.3,15.3,29.92,East,93,6.9,37.8,58,0.00,,,0.03,VWS V14.01,2013-04-02 01:21:00,
2013-04-01 21:27:00,28.2,15.1,29.92,NNE,15,0.9,37.8,57,0.00,,,0.03,VWS V14.01,2013-04-02 01:27:00,
2013-04-01 21:32:00,28.1,15.2,29.92,SSE,160,2.4,45.7,58,0.00,,,0.03,VWS V14.01,2013-04-02 01:32:00,
2013-04-01 21:37:00,28.1,15.2,29.92,SE,128,4.7,45.7,58,0.00,,,0.03,VWS V14.01,2013-04-02 01:37:00,
2013-04-01 21:42:00,28.0,15.1,29.92,NNW,338,10.8,45.7,58,0.00,,,0.03,VWS V14.01,2013-04-02 01:42:00,
2013-04-01 21:48:00,28.0,15.4,29.92,NE,55,14.9,45.7,59,0.00,,,0.03,VWS V14.01,2013-04-02 01:48:00,
2013-04-01 21:53:00,27.8,15.3,29.92,NE,41,11.0,45.7,59,0.00,,,0.03,VWS V14.01,2013-04-02 01:53:00,
2013-04-01 21:58:00,28.0,15.5,29.92,South,177,5.0,19.9,59,0.00,,,0.03,VWS V14.01,2013-04-02 01:58:00,
2013-04-01 22:03:00,27.9,15.2,29.92,SSE,155,7.8,27.8,58,0.00,,,0.03,VWS V14.01,2013-04-02 02:03:00,
2013-04-01 22:09:00,27.8,15.4,29.92,NNW,347,7.8,30.6,59,0.00,,,0.03,VWS V14.01,2013-04-02 02:09:00,
2013-04-01 22:14:00,27.7,15.1,29.92,ESE,118,7.6,30.8,59,0.00,,,0.03,VWS V14.01,2013-04-02 02:14:00,
2013-04-01 22:19:00,27.7,15.4,29.92,NE,48,16.2,30.8,59,0.00,,,0.03,VWS V14.01,2013-04-02 02:19:00,
2013-04-01 22:24:00,27.5,15.3,29.92,ENE,76,23.1,31.5,60,0.00,,,0.03,VWS V14.01,2013-04-02 02:24:00,
2013-04-01 22:29:00,27.5,15.3,29.92,NW,321,12.5,31.5,60,0.00,,,0.03,VWS V14.01,2013-04-02 02:29:00,
2013-04-01 22:34:00,27.5,15.7,29.92,NNW,338,6.0,33.2,61,0.00,,,0.03,VWS V14.01,2013-04-02 02:34:00,
2013-04-01 22:39:00,27.4,15.5,29.92,ESE,107,13.0,33.2,60,0.00,,,0.03,VWS V14.01,2013-04-02 02:39:00,
2013-04-01 22:45:00,27.3,15.5,29.92,NNE,21,9.5,33.2,61,0.00,,,0.03,VWS V14.01,2013-04-02 02:45:00,
2013-04-01 22:50:00,27.3,15.6,29.92,SE,143,14.9,33.2,61,0.00,,,0.03,VWS V14.01,2013-04-02 02:50:00,
2013-04-01 22:55:00,27.2,15.4,29.92,NNW,338,6.9,51.1,61,0.00,,,0.03,VWS V14.01,2013-04-02 02:55:00,
2013-04-01 23:00:00,27.2,15.6,29.92,NNW,333,17.1,24.2,61,0.00,,,0.03,VWS V14.01,2013-04-02 03:00:00,
2013-04-01 23:06:00,27.2,16.0,29.92,NNE,17,9.3,25.5,62,0.00,,,0.03,VWS V14.01,2013-04-02 03:06:00,
2013-04-01 23:11:00,27.0,15.7,29.92,NW,316,10.1,42.9,62,0.00,,,0.03,VWS V14.01,2013-04-02 03:11:00,
2013-04-01 23:16:00,26.9,15.7,29.92,NE,38,36.5,42.9,62,0.00,,,0.03,VWS V14.01,2013-04-02 03:16:00,
2013-04-01 23:21:00,26.9,15.8,29.92,East,100,1.5,42.9,62,0.00,,,0.03,VWS V14.01,2013-04-02 03:21:00,
2013-04-01 23:27:00,27.0,15.8,29.92,NNW,343,28.9,42.9,62,0.00,,,0.03,VWS V14.01,2013-04-02 03:27:00,
2013-04-01 23:32:00,26.8,15.6,29.92,ESE,122,0.0,47.2,62,0.00,,,0.03,VWS V14.01,2013-04-02 03:32:00,
2013-04-01 23:37:00,26.8,15.8,29.92,NNW,343,15.1,47.2,63,0.00,,,0.03,VWS V14.01,2013-04-02 03:37:00,
2013-04-01 23:42:00,26.8,16.0,29.92,WNW,291,2.6,47.2,63,0.00,,,0.03,VWS V14.01,2013-04-02 03:42:00,
2013-04-01 23:48:00,26.8,16.0,29.92,North,350,2.8,47.2,63,0.00,,,0.03,VWS V14.01,2013-04-02 03:48:00,
2013-04-01 23:53:00,26.6,15.9,29.92,SE,129,1.3,47.2,64,0.00,,,0.03,VWS V14.01,2013-04-02 03:53:00,
2013-04-01 23:58:00,26.4,15.8,29.92,ENE,69,21.6,26.8,64,0.00,,,0.03,VWS V14.01,2013-04-02 03:58:00,